Skip Page Navigation
NASA JPL Caltech
NASA Logo - Jet Propulsion Laboratory + View the NASA Portal
+ Center for Near-Earth Object Studies
JPL Home Earth Solar System Stars & Galaxies Technology
JPL Solar System Dynamics
BODIES ORBITS EPHEMERIDES TOOLS PHYSICAL DATA DISCOVERY FAQ SITE MAP
IMPORTANT: The SSD Announcement email list is now available. Major changes are coming in the near future, including possible hostname and/or URL changes. To be notified of such changes, subscribe to this email list.

Please visit this page for more details.


JPL Small-Body Database Browser
Search: [ help ]  
32973 (1996 TN11)
Classification: Main-belt Asteroid          SPK-ID: 2032973
Ephemeris | Orbit Diagram | Orbital Elements | Mission Design | Physical Parameters | Discovery Circumstances ]

[ show orbit diagram ]
Orbital Elements at Epoch 2458600.5 (2019-Apr-27.0) TDB
Reference: JPL 23 (heliocentric ecliptic J2000)
 Element Value Uncertainty (1-sigma)   Units 
e .09520711797292962 4.5731e-08  
a 2.572783889161187 1.1747e-08 au
q 2.327836549906965 1.1766e-07 au
i 2.463106489054941 4.4081e-06 deg
node 116.5010581804705 0.00011233 deg
peri 218.3218489086116 0.0001149 deg
M 207.6958088923334 2.7125e-05 deg
tp 2459238.194603518322
(2021-Jan-23.69460352)
0.0001156 TDB
period 1507.312803390345
4.13
1.0324e-05
2.827e-08
d
yr
n .2388356280065191 1.6358e-09 deg/d
Q 2.817731228415409 1.2866e-08 au
  Orbit Determination Parameters
   # obs. used (total)      1253  
   data-arc span      8244 days (22.57 yr)  
   first obs. used      1996-10-11  
   last obs. used      2019-05-08  
   planetary ephem.      DE431  
   SB-pert. ephem.      SB431-N16  
   condition code      0  
   norm. resid. RMS      .56956  
   source      ORB  
   producer      Otto Matic  
   solution date      2019-May-30 03:45:40  

Additional Information
 Earth MOID = 1.31741 au 
 Jupiter MOID = 2.47773 au 
 T_jup = 3.421 
[ show covariance matrix ]

Ephemeris | Orbit Diagram | Orbital Elements | Mission Design | Physical Parameters | Discovery Circumstances ]

Physical Parameter Table
Parameter Symbol Value Units Sigma Reference Notes
absolute magnitude H 14.6   n/a MPO385021  

32973 (1996 TN11)          Discovered 1996-Oct-11 by Endate, K. at Kitami
Reference: 20020128/Numbers.arcLast Updated: 2004-04-19

Alternate Designations
 1996 TN11 = 1999 JP46 
Ephemeris | Orbit Diagram | Orbital Elements | Mission Design | Physical Parameters | Discovery Circumstances ]
ABOUT SSD CREDITS/AWARDS PRIVACY/COPYRIGHT GLOSSARY LINKS
FirstGov
(server date/time)  
NASA Home Page
Site Manager:   Ryan S. Park
Webmaster  Alan B. Chamberlin